Weather in Quibdo

Colombia     5°41′30″N   76°39′25″W
temp.,
°C
wind,
m/s
gust,
m/s
humid.,
%
clouds,
%
prec.,
mm/h
press.,
hPa
HPBL,
m
24 july, sat
sat2401:00+23sse12100100 12.6 1012117
04:00+23se12100100 6.7 1011110
07:00+23s1399100 12.3 1012156
10:00+23s2898100 4.0 1015526
13:00+23sse1498100 13.0 1014291
16:00+23e1298100 5.1 1013152
19:00+22sse00100100 10.6 101443
22:00+22s13100100 1.4 1015150
25 july, sun
sun2501:00+22ssw0099100 1.6 101422
04:00+21sse12100100 1.3 101292
07:00+22s1299100 2.3 1014126
10:00+25s1288100 0.1 1014529
13:00+26w1281100 0.6 1012591
16:00+25w1393100 3.7 1011308
19:00+23sw1196100 8.2 101224
22:00+22se14100100 6.1 1014201
26 july, mon
mon2601:00+22sse1310098 9.8 1013169
04:00+22sse12100100 5.3 101284
07:00+22se13100100 23.8 1013197
10:00+24ssw129697 1.1 1014267
13:00+27wsw227595 1.6 1012781
16:00+27w128781 2.9 1010654
19:00+23w1196100 7.6 101218
22:00+23s1199100 8.4 101448
27 july, tue
tue2701:00+22s01100100 34.2 101360
04:00+22sse0110095 11.9 101241
07:00+22e01100100 17.1 101451
10:00+24wsw009280 0.3 1014391
13:00+30w2264100 0.4 10121234
16:00+26wnw1392100 2.5 1010139
19:00+23sw1297100 7.1 101252
22:00+23se129960 3.6 101485
28 july, wed
wed2801:00+22s1399100 4.2 1013134
04:00+22s159975 1.9 1012234
07:00+22se1399100 3.7 1014199
10:00+23sse1396100 1.6 1015291
13:00+22se12100100 8.5 1014118
16:00+22ese1599100 4.7 1011236
19:00+22wsw1298100 4.7 101146
22:00+22w1198100 0.0 101235